Regional Weather Roundup
Issued by NWS San Diego, CA

Home | Current Version | Previous Version | Text Only | Print | Product List | Glossary On
Versions: 1 2 3 4 5 6 7 8 9 10 11 12 13 14 15 16 17 18 19 20 21 22 23 24 25 26 27
000
ASUS46 KSGX 102211
RWRSGX

SAN DIEGO HOURLY WEATHER ROUNDUP
NATIONAL WEATHER SERVICE SAN DIEGO CA
200 PM PST SAT DEC 10 2016

NOTE: "FAIR" INDICATES FEW OR NO CLOUDS BELOW 12,000 FEET WITH NO
SIGNIFICANT WEATHER AND/OR OBSTRUCTIONS TO VISIBILITY.

CAZ042-043-060-061-PZZ750-775-102300-

GREATER SAN DIEGO AREA

CITY           SKY/WX    TMP DP  RH WIND       PRES   REMARKS
SAN DIEGO AP   PTSUNNY   66  54  65 W10       30.12F
NATIONAL CITY    N/A     66  57  73 SW2       30.11F
CHULA VISTA      N/A     66  58  75 W3        30.03F
IMPERIAL BEACH MOSUNNY   66  55  67 W10       30.11F
BROWN FIELD    MOSUNNY   65  56  72 W8        30.10F
MIRAMAR MCAS   MOSUNNY   67  56  67 W10       30.11F
MONTGOMERY FLD MOSUNNY   64  53  67 NW8       30.11F

$$

NORTH SAN DIEGO COUNTY

CITY           SKY/WX    TMP DP  RH WIND       PRES   REMARKS
CAMP PENDLETON MOSUNNY   64  56  75 SW8       30.11F
OCEANSIDE AP   PTSUNNY   65  56  72 W8        30.11F
OCEANSIDE HBR    N/A     61  57  85 SW5       30.15F
VISTA            N/A     63  56  78 W1        30.09F
CARLSBAD       MOSUNNY   62  56  80 W7        30.11S
DEL MAR          N/A     64  58  81 CALM      30.14F
LA JOLLA SCRIP   N/A     61  57  86 W3        30.12F
FALLBROOK        N/A     64  60  87 SW3       30.10F
ESCONDIDO        N/A     66  56  69 W3        30.12F
SAN MARCOS       N/A     66  56  69 NW5       30.14F

$$

EAST SAN DIEGO COUNTY

CITY           SKY/WX    TMP DP  RH WIND       PRES   REMARKS
RAMONA         MOSUNNY   65  51  60 W8        30.10F
SANTEE LAKES     N/A     67  57  70 SW1       30.09F
LA MESA          N/A     64  56  73 CALM      30.05F
JAMUL            N/A     65  56  71 CALM      30.11F
DESCANSO N       N/A     60  47  61 W7        30.07F
CAMPO            N/A     64  45  49 SW16      30.08S

$$

ORANGE COUNTY AND THE LOS ANGELES BASIN

CITY           SKY/WX    TMP DP  RH WIND       PRES   REMARKS
JOHN WAYNE AP  CLOUDY    62  58  86 SW7       30.12F
LAGUNA BEACH     N/A     61  58  89 S3        30.07F
LAKE FOREST FR   N/A     63  53  69 CALM      30.02F
HUNTINGTON BCH   N/A     61  59  93 SE1       30.13F
LOS ALAMITOS   CLOUDY    62  56  83 SE3       30.11F
FULLERTON      PTSUNNY   64  55  72 S3        30.10F
LONG BEACH     CLOUDY    63  52  67 S5        30.11F HAZE
L.A. AP        PTSUNNY   63  55  75 W10       30.12F HAZE
L.A. DOWNTOWN  MOSUNNY   65  54  67 CALM      30.10F HAZE

$$

THE INLAND EMPIRE

CITY           SKY/WX    TMP DP  RH WIND       PRES   REMARKS
CORONA         MOSUNNY   66  54  65 W10       30.10F
CHINO          SUNNY     67  53  61 W6        30.11F HAZE
ONTARIO        PTSUNNY   63  52  67 VRB3      30.10F
SAN BERNARDINO PTSUNNY   66  46  48 W5        30.11F
RIVERSIDE AP   SUNNY     65  52  62 VRB3      30.10F
MORENO VALLEY    N/A     66  55  66 W3        28.21F
MARCH ARB      SUNNY     65  51  60 W6        30.10F
HORSETHIEF CYN   N/A     64  47  53 NE7       30.15F
PERRIS           N/A     66  53  62 NW3       30.12F
HEMET EAST       N/A     64  47  53 CALM      30.15F
FRENCH VALLEY  NOT AVBL
TEMECULA         N/A     67  57  68 SW6       30.13F

$$

SAN BERNARDINO AND RIVERSIDE COUNTY MOUNTAINS

CITY           SKY/WX    TMP DP  RH WIND       PRES   REMARKS
BIG BEAR AP    MOSUNNY   52  39  62 W16       30.20F
ANGELUS OAKS     N/A     54  42  65 NW2       30.05F
PINE COVE        N/A     53  43  68 N3        30.11F

$$

SOUTHERN DESERT INCLUDING THE COACHELLA VALLEY

CITY           SKY/WX    TMP DP  RH WIND       PRES   REMARKS
PALM SPRINGS   SUNNY     73  43  33 E9        30.01F
PALM DESERT      N/A     73  47  39 SE3         N/A
THERMAL        SUNNY     72  41  32 VRB5      30.00F
BLYTHE         SUNNY     69  33  26 SE7       30.02F
IMPERIAL AP    SUNNY     74  38  27 CALM      30.00F
EL CENTRO NAS  PTSUNNY   73  35  25 SE3       30.02F
YUMA AZ        SUNNY     75  36  24 CALM      30.02
MEXICALI       MOSUNNY   75  28  17 CALM      30.03

$$

UPPER DESERT

CITY           SKY/WX    TMP DP  RH WIND       PRES   REMARKS
VICTORVILLE AP MOSUNNY   70  46  43 W22G30    30.08F
HESPERIA         N/A     70  48  44 NW3       30.17F
PALMDALE       MOSUNNY   69  51  52 NW21      30.08F
LANCASTER      CLOUDY    66  52  60 W23       30.09S
EDWARDS AFB    MOSUNNY   70  49  46 W15       30.03F
DAGGETT        SUNNY     75  47  36 W29G38    29.98F
NEEDLES        SUNNY     66  27  23 VRB3      30.03F

$$

REGIONAL REPORTS

CITY           SKY/WX    TMP DP  RH WIND       PRES   REMARKS
SANTA BARBARA  MOSUNNY   67  60  78 E3        30.08F
SANDBERG       MOSUNNY   62  49  62 NW14      30.16S
LAS VEGAS NV   MOSUNNY   57  20  23 CALM      30.02F
PHOENIX AZ     PTSUNNY   71  37  28 S3        30.03F
TIJUANA        PTSUNNY   66  52  59 NW7       30.13F
ENSENADA NW      N/A     64  32  30 W9        30.07F

$$

OFFSHORE ISLANDS

CITY           SKY/WX    TMP DP  RH WIND       PRES   REMARKS
CATALINA ARPT  FOG       57  57 100 W7        30.13F VSB<1/4
SAN NICOLAS IS PTSUNNY   64  54  69 W24G30    30.12F

$$

MARINE AND OFFSHORE BUOY REPORTS

STATION/POSITION SKY/WX   TEMP    WIND        PRES    SWELL
                          AIR SEA DIR/SP/G            HT/PER/DIR
                          (F)     (DEG/KT/KT) (MB)    (FT/S/D)
TANNER BANKS               61 62  310/ 17/ 19 1020.6F   3/290/15
S CLEMENTE BASIN           60 62  310/  8/ 10 1020.1F   3/290/ 6
SAN NICOLAS IS.               58                N/A     2/280/13
SO. S. ROSA ISLA           58 59  290/ 14/ 16 1020.1F   3/280/14
W. S. BARBARA CH           58 57  300/  8/ 10 1020.4F   5/290/14
M. S. BARBARA CH                                N/A     2/260/ 9
S. MONICA BASIN            61 62  320/  8/ 10 1019.6F   3/260/ 6
S PEDRO CHANNEL               61                N/A     2/270/14
CMP PENDLETON NS              61                N/A     2/240/15
OCEANSIDE OFFSHR              62                N/A     2/230/14
TORREY PINES OTR              62                N/A     2/260/13
POINT LOMA SOUTH              62                N/A     2/270/14

$$





USA.gov is the U.S. government's official web portal to all federal, state and local government web resources and services.